Regional Weather Roundup
Issued by NWS Boston, MA

Current Version | Previous Version | Text Only | Print | Product List | Glossary On
Versions: 1 2 3 4 5 6 7 8 9 10 11 12 13 14 15 16 17 18 19 20 21 22 23 24 25 26 27
000 ASUS41 KBOX 210610 RWRBOX REGIONAL WEATHER ROUNDUP NATIONAL WEATHER SERVICE TAUNTON MA 200 AM EDT MON APR 21 2014 NOTE: "FAIR" INDICATES FEW OR NO CLOUDS BELOW 12,000 FEET WITH NO SIGNIFICANT WEATHER AND/OR OBSTRUCTIONS TO VISIBILITY. THE FOLLOWING OBSERVATION LOCATIONS DO NOT REPORT PRESENT WEATHER...PROVINCETOWN... SMITHFIELD...BLOCK ISLAND...KEENE...AND OXFORD. MAZALL-210700- EASTERN MASSACHUSETTS CITY SKY/WX TMP DP RH WIND PRES REMARKS BOSTON FAIR 40 32 73 SW5 30.30F 6HR MIN TEMP: 39; 6HR MAX TEMP: 43; BEVERLY FAIR 37 33 85 CALM 30.29F LAWRENCE FAIR 39 30 70 S5 30.30F BEDFORD FAIR 35 30 82 CALM 30.28F BLUE HILL N/A 38 32 79 SW10 30.26F WCI 31 NORWOOD FAIR 33 31 92 CALM 30.30F MARSHFIELD N/A N/A N/A N/A MISG N/A PLYMOUTH FAIR 29 26 89 CALM 30.30F TAUNTON FAIR 30 28 92 CALM 30.29F FOG NEW BEDFORD FAIR 33 31 92 CALM 30.29F $$ MAZALL-210700- CAPE COD AND THE ISLANDS CITY SKY/WX TMP DP RH WIND PRES REMARKS FALMOUTH FAIR 34 32 93 SE3 30.30F HYANNIS FAIR 31 28 89 CALM 30.29F CHATHAM FAIR 37 35 92 SE3 30.31F PROVINCETOWN FAIR 30 28 93 MISG 30.31F NANTUCKET FAIR 34 31 88 E7 30.30F WCI 28 MARTHAS VNYRD FAIR 29 25 85 SE3 30.30F $$ MAZALL-210700- CENTRAL AND WESTERN MASSACHUSETTS CITY SKY/WX TMP DP RH WIND PRES REMARKS WORCESTER FAIR 36 25 64 W8 30.26F WCI 30 6HR MIN TEMP: 35; 6HR MAX TEMP: 49; FITCHBURG FAIR 37 28 70 CALM 30.28F ORANGE FAIR 33 26 75 CALM 30.27F SPRINGFIELD FAIR 37 26 65 SE2 30.28F WESTFIELD FAIR 38 26 62 S3 30.28F NORTH ADAMS FAIR 41 26 55 E8 30.24F PITTSFIELD FAIR 40 24 53 SW5 30.23F $$ RIZALL-210700- RHODE ISLAND CITY SKY/WX TMP DP RH WIND PRES REMARKS PROVIDENCE FAIR 37 31 78 W3 30.30F 6HR MIN TEMP: 37; 6HR MAX TEMP: 45; NEWPORT FAIR 34 31 88 CALM 30.29F BLOCK ISLAND FAIR 37 34 87 E6 30.28F SMITHFIELD FAIR 34 27 75 CALM 30.29F WESTERLY FAIR 32 30 92 N3 30.30F $$ CTZALL-210700- CONNECTICUT CITY SKY/WX TMP DP RH WIND PRES REMARKS BRADLEY INTL FAIR 39 27 62 SE3 30.29F 6HR MIN TEMP: 39; 6HR MAX TEMP: 51; HARTFORD FAIR 37 29 72 CALM 30.30F BRIDGEPORT FAIR 40 33 76 N6 30.29F DANBURY FAIR 33 28 81 SW3 30.29F GROTON FAIR 34 31 88 CALM 30.29F NEW HAVEN FAIR 35 30 82 CALM 30.29F CHESTER FAIR 36 30 80 MISG 30.28F MERIDEN FAIR 33 29 85 CALM 30.30F WILLIMANTIC FAIR 34 28 79 CALM 30.30F OXFORD FAIR 34 27 75 CALM 30.29F $$ MEZ002-015-021-024-NHZ003-005-008-011-012-014-VTZ005-008-210700- NORTHERN NEW ENGLAND CITY SKY/WX TMP DP RH WIND PRES REMARKS PORTLAND ME FAIR 35 31 85 CALM 30.28F 6HR MIN TEMP: 34; 6HR MAX TEMP: 41; BANGOR ME MOCLDY 38 28 67 S8 30.25F CONCORD NH FAIR 36 26 67 S7 30.26F WCI 30 MANCHESTER NH FAIR 40 27 59 S3 30.26F NASHUA NH FAIR 37 29 73 CALM 30.28F PORTSMOUTH NH CLEAR 34 33 94 S3 30.27F JAFFREY NH FAIR 37 25 61 S5 30.25F KEENE NH FAIR 37 25 60 S5 30.26F BURLINGTON VT FAIR 54 22 28 S13 30.15F MT. WASHINGTON MOCLDY 32 9 37 W25 N/A WCI 19 $$ NYZ052-076-210700- EASTERN NEW YORK CITY SKY/WX TMP DP RH WIND PRES REMARKS ALBANY FAIR 46 25 43 S8 30.24F 6HR MIN TEMP: 46; 6HR MAX TEMP: 59; NEW YORK CITY FAIR 44 28 53 NE3 30.28F 6HR MIN TEMP: 44; 6HR MAX TEMP: 50; $$ ANZALL-210700- MARINE OBSERVATIONS STATION/POSITION TIME TEMP WIND PRES VSBY WAVE AIR SEA DIR/SP/G HT/PER (UTC) (F) (DEG/KT/KT) (MB) (MI) (FT/S) BOSTON BUOY 0550 40 41 210/ 6/ 6 1026.1F 2/ 8 BUZZARDS BAY 0500 120/ 8/ 9 1027.4F NANTUCKET SOUND 0550 42 44 110/ 8/ 10 1026.1F 1 MASS BAY-STELLWA NOT AVBL ISLE OF SHOALS 0600 41 200/ 13/ 13 1024.7F S OF BLOCK IS 0525 42 N/A 3/ 8 $$ ......................KEY......................... SKY/WX - SKY CONDITION/PRESENT WEATHER TMP - TEMPERATURE IN FAHRENHEIT DWPT - DEWPOINT IN FAHRENHEIT RH - RELATIVE HUMIDITY IN PERCENT WIND - DIRECTION AND SPEED IN MPH PRES - MEAN SEA LEVEL PRESSURE IN INCHES OF HG WCI - WIND CHILL INDEX VSB - VISIBILITY IN MILES HX - HEAT INDEX TC - TEMPERATURE IN CELSIUS VRB - VARIABLE WIND DIRECTION N/A - NOT AVAILABLE

USA.gov is the U.S. government's official web portal to all federal, state and local government web resources and services.